Terug naar catalogus

BEIDOU 3M27

ActiefNavigatieMEO
NORAD 61187·PAYLOAD·🇨🇳 China

Gelanceerd Sep 19, 2024 vanaf Xichang Satellite Launch Center

Loading…

Volgende Passages (komende 24 uur)

TLE

VersSource: Space-Track

Epoch: Sep 14, 2026, 22:14 UTC

1 61187U 24168C   26257.92668076 -.00000060  00000-0  00000-0 0  9997
2 61187  54.3856 299.0985 0001003 325.2239  33.4623  1.86230386 10928

Volg BEIDOU 3M27 in realtime met AllMySat

Download on the App Store